WZZ979 EPKK-LHBP

Flight info

Callsign WZZ979
Flight time 0h 41m
Altitude 26000
Route BABKO DCT NIDOK/N0364F250 DCT EDEMU
Aircraft A21N/M-SDE1E2E3FGIJ1J4RWXY/LB1

Departure

Time 2026-05-03 21:07
Airport Kraków John Paul II International Airport (EPKK)

Arrival

Time 2026-05-03 21:49
Airport Budapest Liszt Ferenc International Airport (LHBP)
Time Latitude Longitude Altitude Speed Heading
2026-05-03 20:38 50.07581 19.80159 805 ft 0 kts 347°
2026-05-03 21:04 50.07587 19.80157 805 ft 3 kts 347°
2026-05-03 21:05 50.07616 19.80159 805 ft 6 kts 24°
2026-05-03 21:05 50.07645 19.80232 805 ft 10 kts 78°
2026-05-03 21:05 50.07670 19.80352 805 ft 13 kts 46°
2026-05-03 21:05 50.07767 19.80372 805 ft 16 kts 342°
2026-05-03 21:06 50.07844 19.80337 805 ft 7 kts 347°
2026-05-03 21:06 50.07904 19.80316 805 ft 11 kts 347°
2026-05-03 21:06 50.07986 19.80277 805 ft 14 kts 328°
2026-05-03 21:06 50.08000 19.80118 806 ft 19 kts 256°
2026-05-03 21:07 50.07928 19.79612 806 ft 86 kts 257°
2026-05-03 21:07 50.07753 19.78358 807 ft 146 kts 257°
2026-05-03 21:07 50.07500 19.76611 966 ft 179 kts 256°
2026-05-03 21:07 50.07231 19.74706 1634 ft 175 kts 257°
2026-05-03 21:08 50.06975 19.72848 2337 ft 182 kts 256°
2026-05-03 21:08 50.06695 19.70834 2805 ft 202 kts 256°
2026-05-03 21:08 50.06358 19.68583 3361 ft 223 kts 251°
2026-05-03 21:08 50.05630 19.66417 4169 ft 231 kts 227°
2026-05-03 21:09 50.04314 19.64947 4986 ft 243 kts 201°
2026-05-03 21:09 50.02593 19.64611 5634 ft 259 kts 174°
2026-05-03 21:09 50.00828 19.65184 6523 ft 266 kts 167°
2026-05-03 21:09 49.99020 19.65880 7446 ft 270 kts 167°
2026-05-03 21:10 49.97184 19.66561 8387 ft 273 kts 167°
2026-05-03 21:10 49.95321 19.67233 9323 ft 277 kts 168°
2026-05-03 21:10 49.93429 19.67895 10218 ft 282 kts 168°
2026-05-03 21:10 49.91456 19.68572 10727 ft 300 kts 168°
2026-05-03 21:11 49.89349 19.69208 11220 ft 316 kts 174°
2026-05-03 21:11 49.87140 19.69018 11931 ft 322 kts 194°
2026-05-03 21:11 49.85096 19.67680 12743 ft 327 kts 208°
2026-05-03 21:11 49.83111 19.65916 13593 ft 331 kts 210°
2026-05-03 21:12 49.81101 19.64105 14374 ft 336 kts 210°
2026-05-03 21:12 49.79058 19.62299 15126 ft 340 kts 209°
2026-05-03 21:12 49.76982 19.60489 15855 ft 346 kts 209°
2026-05-03 21:12 49.74865 19.58660 16604 ft 350 kts 209°
2026-05-03 21:13 49.72721 19.56816 17352 ft 355 kts 209°
2026-05-03 21:13 49.70574 19.54975 18090 ft 360 kts 209°
2026-05-03 21:13 49.68374 19.53089 18786 ft 364 kts 210°
2026-05-03 21:13 49.66152 19.51184 19431 ft 367 kts 210°
2026-05-03 21:14 49.63903 19.49262 20076 ft 371 kts 210°
2026-05-03 21:14 49.61632 19.47322 20724 ft 375 kts 210°
2026-05-03 21:14 49.59357 19.45322 21348 ft 379 kts 211°
2026-05-03 21:14 49.57059 19.43269 21945 ft 383 kts 211°
2026-05-03 21:15 49.54746 19.41198 22591 ft 386 kts 211°
2026-05-03 21:15 49.52407 19.39119 23230 ft 390 kts 211°
2026-05-03 21:15 49.50052 19.37033 23872 ft 391 kts 211°
2026-05-03 21:15 49.47730 19.34975 24495 ft 390 kts 211°
2026-05-03 21:16 49.45382 19.32893 25113 ft 390 kts 211°
2026-05-03 21:16 49.43035 19.30810 25709 ft 390 kts 211°
2026-05-03 21:16 49.40677 19.28723 26063 ft 392 kts 211°
2026-05-03 21:16 49.38319 19.26638 26157 ft 390 kts 211°
2026-05-03 21:17 49.35950 19.24542 26172 ft 393 kts 211°
2026-05-03 21:17 49.34382 19.23157 26165 ft 394 kts 211°
2026-05-03 21:17 49.31204 19.20358 26146 ft 393 kts 211°
2026-05-03 21:17 49.28836 19.18271 26147 ft 393 kts 211°
2026-05-03 21:18 49.26499 19.16214 26147 ft 392 kts 211°
2026-05-03 21:18 49.24139 19.14137 26150 ft 392 kts 211°
2026-05-03 21:18 49.21770 19.12058 26153 ft 392 kts 211°
2026-05-03 21:18 49.19406 19.09986 26151 ft 392 kts 210°
2026-05-03 21:19 49.17043 19.07918 26150 ft 392 kts 210°
2026-05-03 21:19 49.14681 19.05851 26149 ft 392 kts 210°
2026-05-03 21:19 49.12311 19.03781 26154 ft 392 kts 210°
2026-05-03 21:19 49.09979 19.01743 26155 ft 392 kts 210°
2026-05-03 21:20 49.07606 18.99673 26156 ft 393 kts 210°
2026-05-03 21:20 49.05236 18.97607 26154 ft 393 kts 210°
2026-05-03 21:20 49.02860 18.95540 26154 ft 393 kts 210°
2026-05-03 21:20 49.00484 18.93477 26155 ft 393 kts 210°
2026-05-03 21:21 48.98103 18.91410 26157 ft 393 kts 210°
2026-05-03 21:21 48.95728 18.89351 26159 ft 393 kts 210°
2026-05-03 21:21 48.93351 18.87294 26162 ft 393 kts 210°
2026-05-03 21:21 48.90854 18.85597 26158 ft 394 kts 196°
2026-05-03 21:22 48.88179 18.85063 26158 ft 394 kts 177°
2026-05-03 21:22 48.85502 18.85837 26164 ft 393 kts 158°
2026-05-03 21:22 48.83129 18.87854 26168 ft 391 kts 140°
2026-05-03 21:22 48.81142 18.90634 26179 ft 388 kts 134°
2026-05-03 21:23 48.79231 18.93514 26177 ft 386 kts 134°
2026-05-03 21:23 48.77316 18.96367 26169 ft 385 kts 134°
2026-05-03 21:23 48.75389 18.99176 26174 ft 384 kts 135°
2026-05-03 21:23 48.73459 19.01957 26171 ft 382 kts 135°
2026-05-03 21:24 48.71529 19.04725 26172 ft 382 kts 135°
2026-05-03 21:24 48.69623 19.07444 26175 ft 382 kts 135°
2026-05-03 21:24 48.67690 19.10203 26177 ft 384 kts 135°
2026-05-03 21:24 48.65752 19.12968 26179 ft 383 kts 135°
2026-05-03 21:25 48.63812 19.15723 26180 ft 383 kts 135°
2026-05-03 21:25 48.61870 19.18480 26182 ft 383 kts 135°
2026-05-03 21:25 48.59928 19.21231 26178 ft 382 kts 135°
2026-05-03 21:25 48.57991 19.23980 26176 ft 382 kts 135°
2026-05-03 21:26 48.56075 19.26696 26171 ft 382 kts 135°
2026-05-03 21:26 48.54133 19.29446 26167 ft 383 kts 135°
2026-05-03 21:26 48.52190 19.32190 26171 ft 384 kts 135°
2026-05-03 21:26 48.50239 19.34943 26171 ft 385 kts 135°
2026-05-03 21:27 48.48297 19.37676 26088 ft 378 kts 135°
2026-05-03 21:27 48.46394 19.40354 25838 ft 372 kts 135°
2026-05-03 21:27 48.44508 19.43004 25608 ft 370 kts 135°
2026-05-03 21:27 48.42635 19.45639 25361 ft 368 kts 135°
2026-05-03 21:28 48.40766 19.48270 25119 ft 367 kts 135°
2026-05-03 21:28 48.38931 19.50846 24898 ft 365 kts 135°
2026-05-03 21:28 48.37077 19.53446 24646 ft 364 kts 135°
2026-05-03 21:28 48.35227 19.56032 24402 ft 363 kts 135°
2026-05-03 21:29 48.33384 19.58612 24167 ft 361 kts 135°
2026-05-03 21:29 48.31545 19.61180 23936 ft 360 kts 135°
2026-05-03 21:29 48.29716 19.63728 23693 ft 359 kts 135°
2026-05-03 21:29 48.27890 19.66267 23409 ft 357 kts 135°
2026-05-03 21:30 48.26098 19.68764 23152 ft 355 kts 135°
2026-05-03 21:30 48.24291 19.71279 22877 ft 354 kts 135°
2026-05-03 21:30 48.22487 19.73780 22611 ft 352 kts 135°
2026-05-03 21:30 48.20690 19.76273 22339 ft 351 kts 135°
2026-05-03 21:31 48.18817 19.78595 21974 ft 350 kts 146°
2026-05-03 21:31 48.16591 19.80024 21537 ft 349 kts 166°
2026-05-03 21:31 48.14179 19.80205 21100 ft 349 kts 185°
2026-05-03 21:31 48.11784 19.79655 20681 ft 347 kts 189°
2026-05-03 21:32 48.09414 19.79022 20258 ft 345 kts 189°
2026-05-03 21:32 48.07053 19.78415 19841 ft 343 kts 188°
2026-05-03 21:32 48.04705 19.77839 19427 ft 342 kts 188°
2026-05-03 21:32 48.02386 19.77283 19021 ft 341 kts 188°
2026-05-03 21:33 48.00068 19.76736 18627 ft 340 kts 187°
2026-05-03 21:33 47.97732 19.76191 18201 ft 339 kts 187°
2026-05-03 21:33 47.95410 19.75651 17768 ft 337 kts 187°
2026-05-03 21:33 47.93096 19.75113 17352 ft 336 kts 187°
2026-05-03 21:34 47.90790 19.74579 16953 ft 335 kts 187°
2026-05-03 21:34 47.88493 19.74045 16576 ft 334 kts 187°
2026-05-03 21:34 47.86202 19.73512 16218 ft 333 kts 187°
2026-05-03 21:34 47.83963 19.72867 15859 ft 333 kts 196°
2026-05-03 21:35 47.81914 19.71284 15501 ft 334 kts 216°
2026-05-03 21:35 47.80174 19.68990 15144 ft 334 kts 223°
2026-05-03 21:35 47.78500 19.66577 14772 ft 335 kts 223°
2026-05-03 21:35 47.76814 19.64173 14387 ft 336 kts 223°
2026-05-03 21:36 47.75107 19.61781 14000 ft 337 kts 222°
2026-05-03 21:36 47.73411 19.59431 13577 ft 331 kts 222°
2026-05-03 21:36 47.71740 19.57135 13150 ft 325 kts 222°
2026-05-03 21:36 47.70091 19.54876 12716 ft 320 kts 222°
2026-05-03 21:37 47.68487 19.52681 12306 ft 315 kts 222°
2026-05-03 21:37 47.66885 19.50495 11905 ft 310 kts 222°
2026-05-03 21:37 47.65307 19.48344 11515 ft 306 kts 222°
2026-05-03 21:37 47.63754 19.46228 11148 ft 303 kts 222°
2026-05-03 21:38 47.62200 19.44112 10776 ft 304 kts 222°
2026-05-03 21:38 47.60642 19.41994 10416 ft 304 kts 222°
2026-05-03 21:38 47.59082 19.39871 10062 ft 304 kts 222°
2026-05-03 21:38 47.57535 19.37771 9733 ft 298 kts 222°
2026-05-03 21:39 47.56046 19.35749 9399 ft 291 kts 222°
2026-05-03 21:39 47.54663 19.33575 9170 ft 281 kts 237°
2026-05-03 21:39 47.54039 19.30978 8969 ft 269 kts 266°
2026-05-03 21:39 47.54322 19.28311 8632 ft 262 kts 294°
2026-05-03 21:40 47.55343 19.26126 8292 ft 259 kts 313°
2026-05-03 21:40 47.56591 19.24203 7954 ft 259 kts 315°
2026-05-03 21:40 47.57844 19.22283 7614 ft 259 kts 314°
2026-05-03 21:40 47.59087 19.20339 7259 ft 261 kts 313°
2026-05-03 21:41 47.60324 19.18369 6906 ft 262 kts 313°
2026-05-03 21:41 47.61562 19.16380 6547 ft 262 kts 312°
2026-05-03 21:41 47.62775 19.14428 6178 ft 260 kts 312°
2026-05-03 21:41 47.63990 19.12461 5821 ft 258 kts 311°
2026-05-03 21:42 47.65188 19.10508 5491 ft 254 kts 310°
2026-05-03 21:42 47.66122 19.08332 5170 ft 250 kts 287°
2026-05-03 21:42 47.66235 19.05821 4884 ft 244 kts 256°
2026-05-03 21:42 47.65506 19.03605 4539 ft 238 kts 228°
2026-05-03 21:43 47.64313 19.01935 4225 ft 233 kts 219°
2026-05-03 21:43 47.63118 19.00435 4035 ft 223 kts 219°
2026-05-03 21:43 47.61924 18.99125 3945 ft 204 kts 206°
2026-05-03 21:43 47.60651 18.98392 3952 ft 195 kts 186°
2026-05-03 21:44 47.59335 18.98725 3915 ft 196 kts 152°
2026-05-03 21:44 47.58272 18.99990 3828 ft 198 kts 134°
2026-05-03 21:44 47.57393 19.01691 3742 ft 216 kts 133°
2026-05-03 21:44 47.56419 19.03303 3643 ft 203 kts 134°
2026-05-03 21:45 47.55492 19.04818 3485 ft 195 kts 134°
2026-05-03 21:45 47.54620 19.06239 3324 ft 180 kts 135°
2026-05-03 21:45 47.53797 19.07580 3095 ft 171 kts 135°
2026-05-03 21:45 47.53036 19.08818 2860 ft 160 kts 135°
2026-05-03 21:46 47.52313 19.09994 2636 ft 149 kts 135°
2026-05-03 21:46 47.51621 19.11119 2438 ft 147 kts 135°
2026-05-03 21:46 47.50939 19.12225 2248 ft 146 kts 135°
2026-05-03 21:46 47.50255 19.13338 2085 ft 146 kts 136°
2026-05-03 21:47 47.49576 19.14441 1891 ft 145 kts 135°
2026-05-03 21:47 47.48901 19.15538 1686 ft 144 kts 135°
2026-05-03 21:47 47.48267 19.16566 1489 ft 130 kts 135°
2026-05-03 21:47 47.47662 19.17549 1298 ft 129 kts 133°
2026-05-03 21:48 47.47068 19.18515 1124 ft 129 kts 132°
2026-05-03 21:48 47.46482 19.19469 951 ft 125 kts 131°
2026-05-03 21:48 47.45890 19.20426 812 ft 125 kts 131°
2026-05-03 21:48 47.45316 19.21349 614 ft 120 kts 130°
2026-05-03 21:49 47.44763 19.22253 493 ft 114 kts 130°
2026-05-03 21:49 47.44317 19.22989 457 ft 62 kts 131°
2026-05-03 21:49 47.44120 19.23301 459 ft 39 kts 135°
2026-05-03 21:49 47.43935 19.23594 460 ft 40 kts 132°
2026-05-03 21:50 47.43744 19.23907 460 ft 39 kts 132°
2026-05-03 21:50 47.43692 19.24156 460 ft 27 kts 97°
2026-05-03 21:50 47.43673 19.24301 462 ft 15 kts 102°
2026-05-03 21:50 47.43634 19.24452 461 ft 17 kts 120°
2026-05-03 21:51 47.43561 19.24601 462 ft 19 kts 132°
2026-05-03 21:51 47.43467 19.24743 462 ft 18 kts 117°
2026-05-03 21:51 47.43389 19.24895 462 ft 20 kts 134°
2026-05-03 21:51 47.43361 19.24935 462 ft 0 kts 135°
2026-05-03 21:53 47.43360 19.24936 462 ft 0 kts 135°
2026-05-03 21:53 47.43352 19.24948 460 ft 3 kts 134°
2026-05-03 21:53 47.43332 19.24980 462 ft 5 kts 133°
2026-05-03 21:53 47.43310 19.25043 461 ft 9 kts 102°
2026-05-03 21:54 47.43330 19.25143 463 ft 12 kts 50°
2026-05-03 21:54 47.43392 19.25236 463 ft 14 kts 50°
2026-05-03 21:54 47.43378 19.25375 462 ft 16 kts 127°
2026-05-03 21:54 47.43303 19.25498 463 ft 8 kts 132°
2026-05-03 21:55 47.43260 19.25568 463 ft 10 kts 133°
2026-05-03 21:55 47.43249 19.25610 463 ft 5 kts 85°
2026-05-03 21:55 47.43270 19.25662 461 ft 5 kts 48°
2026-05-03 21:55 47.43275 19.25670 463 ft 3 kts 45°
2026-05-03 21:56 47.43286 19.25685 463 ft 1 kts 46°
2026-05-03 21:56 47.43290 19.25691 463 ft 1 kts 45°
2026-05-03 21:56 47.43295 19.25698 463 ft 1 kts 45°
2026-05-03 21:56 47.43297 19.25701 463 ft 0 kts 45°